AirNav   Air Wisconsin pilot careers
 
 1552 users online  

84Y Bloomfield Municipal Airport
Bloomfield, Nebraska, USA

GOING TO BLOOMFIELD?


FAA INFORMATION EFFECTIVE 21 JUNE 2018

Location

FAA Identifier: 84Y
Lat/Long: 42-34-47.0080N / 097-40-25.2310W
42-34.783467N / 097-40.420517W
42.5797244 / -97.6736753
(estimated)
Elevation: 1673 ft. / 509.9 m (surveyed)
Variation: 07E (1985)
From city: 2 miles SW of BLOOMFIELD, NE
Time zone: UTC -5 (UTC -6 during Standard Time)
Zip code: 68718

Airport Operations

Airport use: Open to the public
Activation date: 02/1951
Control tower: no
ARTCC: MINNEAPOLIS CENTER
FSS: COLUMBUS FLIGHT SERVICE STATION
NOTAMs facility: OLU (NOTAM-D service available)
Attendance: MON-FRI 0800-1700
FOR ATTENDANT CALL (402) 373-2452.
Wind indicator: lighted
Segmented circle: no
Lights: ACTVT LIRL RY 14/32 - CTAF.
Beacon: white-green (lighted land airport)
Operates sunset to sunrise.

Airport Communications

CTAF: 122.9

Nearby radio navigation aids

VOR radial/distance  VOR name  Freq  Var
YKNr205/24.0YANKTON VOR/DME111.4007E
OFKr335/37.1NORFOLK VOR/DME109.6008E

 
NDB name  Hdg/Dist  Freq  Var  ID
WAGNER129/39.839208EAGZ .- --. --..

Airport Services

Parking: tiedowns
Airframe service: NONE
Powerplant service: NONE

Runway Information

Runway 14/32

Dimensions: 2700 x 50 ft. / 823 x 15 m
Surface: asphalt, in good condition
Runway edge lights: low intensity
LGTD THR RY 14 RELCTD 200 FT; 2500 FT OF RY 14/32 USBL AT NGT. LIRL RY 14/32 OUT OF SERVICE INDEFINITELY.
RUNWAY 14  RUNWAY 32
Gradient: 0.6%0.6%
Traffic pattern: leftleft
Displaced threshold: 200 ft.no
Markings: basic, in good conditionbasic, in good condition
Obstructions: 3 ft. fence, 200 ft. from runway, 70 ft. right of centerline
+3' FENCE 120' FROM RWY END 125'R.
15 ft. hill, 600 ft. from runway, 205 ft. right of centerline, 26:1 slope to clear

Airport Ownership and Management from official FAA records

Ownership: Publicly-owned
Owner: BLOOMFIELD AIRPORT AUTHORITY
P.O, BOX 707
BLOOMFIELD, NE 68718-0707
Phone 402-373-4240
STEVEN L. ARCHBOLD, CHAIRMAN OF AIRPORT AUTHORITY RESIDENCE. PHONE 402-373-4237.
Manager: STEVE BARNEY
BOX 281
BLOOMFIELD, NE 68718
Phone 402-373-2452
RESIDENCE PHONE 402-373-4494.

Airport Operational Statistics

Aircraft based on the field: 5
Single engine airplanes: 5
    
Aircraft operations: avg 78/week *
68% local general aviation
32% transient general aviation
* for 12-month period ending 26 July 2016

Instrument Procedures

There are no published instrument procedures at 84Y.

Some nearby airports with instrument procedures:

6K3 - Creighton Municipal Airport (11 nm SW)
0B4 - Hartington Municipal Airport / Bud Becker Field (19 nm E)
KYKN - Chan Gurney Municipal Airport (24 nm NE)
4V9 - Antelope County Airport (32 nm SW)
KVMR - Harold Davidson Field Airport (34 nm E)
 
Loc | Ops | Rwys | IFR | FBO | Links
Com | Nav | Svcs | Stats | Notes

Silverhawk Aviation, Inc.
AirBoss

 
Area around 84Y (Bloomfield Municipal Airport)
 
Road maps at: MapQuest Bing Google
 
Aerial photo
WARNING: Photo may not be current or correct
Aerial photo of 84Y (Bloomfield Municipal Airport)
Photo by Steve Hamilton
Photo taken 01-Oct-2005

Do you have a better or more recent aerial photo of Bloomfield Municipal Airport that you would like to share? If so, please send us your photo.

 
Sectional chart

 
Airport distance calculator
Flying to Bloomfield Municipal Airport? Find the distance to fly.

From to 84Y

Sunrise and sunset
Times for 16-Jul-2018
 Local
(UTC-5)
 Zulu
(UTC)
Morning civil twilight05:3510:35
Sunrise06:0811:08
Sunset21:0502:05
Evening civil twilight21:3902:39

Current date and time
Zulu (UTC)  16-Jul-2018 14:33:10
Local (UTC-5)  16-Jul-2018 09:33:10
 
METAR
KYKN 
24nm NE 
161356Z AUTO 01003KT 10SM CLR 21/15 A3013 RMK AO2 SLP210 T02060150
KVMR 
34nm E 
SuperAWOS
161355Z AUTO 00000KT 10SM 21/16 A3012
KLCG 
37nm SE 
161415Z AUTO 05005KT 10SM CLR 21/20 A3013 RMK AO2 T02110196
KOFK 
37nm S 
161356Z AUTO 06006KT 10SM OVC044 20/17 A3013 RMK AO2 SLP195 T02000167
KAGZ 
40nm NW 
SuperAWOS
161355Z AUTO 00000KT 10SM 21/17
KONL 
44nm W 
161415Z AUTO 07003KT 10SM SCT065 21/16 A3016 RMK AO2 T02110160
TAF
KOFK 
37nm S 
161131Z 1612/1712 35006KT P6SM SCT025 BKN050 FM161400 03007KT P6SM SCT250 FM170500 14007KT P6SM SKC
NOTAMs
Click for the latest NOTAMs
NOTAMs are issued by the DoD/FAA and will open in a separate window not controlled by AirNav.

 

 
 

Would you like to see your business listed on this page?

 If your business provides an interesting product or service to pilots, flight crews, aircraft, or users of the Bloomfield Municipal Airport, you should consider listing it here.  To start the listing process, click on the button below
 
Add a business
 

Other Pages about Bloomfield Municipal Airport

Update a link
 
Copyright © AirNav, LLC. All rights reserved. Privacy Policy  Contact